TimeEST,TemperatureF,Dew PointF,Humidity,Sea Level PressureIn,VisibilityMPH,Wind Direction,Wind SpeedMPH,Gust SpeedMPH,PrecipitationIn,Events,Conditions,WindDirDegrees,DateUTC
12:54 AM,37.0,23.0,57,29.89,10.0,North,11.5,19.6,N/A,,Overcast,350,2009-12-28 05:54:00
1:54 AM,36.0,21.9,57,29.88,10.0,NNW,12.7,-,N/A,,Scattered Clouds,340,2009-12-28 06:54:00
2:54 AM,34.0,21.9,61,29.88,10.0,NNW,12.7,-,N/A,,Partly Cloudy,330,2009-12-28 07:54:00
3:54 AM,34.0,21.9,61,29.86,10.0,NW,15.0,-,N/A,,Clear,320,2009-12-28 08:54:00
4:54 AM,33.1,21.0,61,29.87,10.0,NNW,16.1,-,N/A,,Partly Cloudy,330,2009-12-28 09:54:00
5:54 AM,32.0,19.0,59,29.88,10.0,NNW,13.8,20.7,N/A,,Scattered Clouds,340,2009-12-28 10:54:00
6:54 AM,30.9,19.0,61,29.91,10.0,NNW,15.0,26.5,N/A,,Mostly Cloudy,340,2009-12-28 11:54:00
7:54 AM,28.9,21.0,72,29.94,10.0,NNW,15.0,19.6,N/A,,Partly Cloudy,330,2009-12-28 12:54:00
8:54 AM,28.9,18.0,64,29.96,10.0,NNW,19.6,25.3,N/A,,Clear,340,2009-12-28 13:54:00
9:54 AM,30.0,14.0,51,29.98,10.0,North,13.8,24.2,N/A,,Clear,360,2009-12-28 14:54:00
10:54 AM,30.0,10.9,45,30.01,10.0,NNW,20.7,27.6,N/A,,Clear,340,2009-12-28 15:54:00
11:54 AM,30.9,12.0,46,30.03,10.0,North,16.1,26.5,N/A,,Clear,350,2009-12-28 16:54:00
12:54 PM,32.0,12.9,45,30.01,10.0,North,17.3,26.5,N/A,,Clear,350,2009-12-28 17:54:00
1:54 PM,34.0,14.0,44,30.00,10.0,North,16.1,23.0,N/A,,Clear,350,2009-12-28 18:54:00
2:54 PM,35.1,15.1,44,30.01,10.0,North,11.5,-,N/A,,Clear,350,2009-12-28 19:54:00
3:54 PM,34.0,16.0,48,30.01,10.0,North,15.0,19.6,N/A,,Clear,360,2009-12-28 20:54:00
4:54 PM,34.0,16.0,48,30.00,10.0,North,9.2,-,N/A,,Clear,350,2009-12-28 21:54:00
5:54 PM,30.9,17.1,57,30.03,10.0,North,11.5,19.6,N/A,,Clear,350,2009-12-28 22:54:00
6:54 PM,28.9,16.0,58,30.05,10.0,NW,5.8,-,N/A,,Clear,320,2009-12-28 23:54:00
7:54 PM,28.9,16.0,58,30.06,10.0,North,8.1,-,N/A,,Mostly Cloudy,350,2009-12-29 00:54:00
8:54 PM,28.9,16.0,58,30.06,10.0,NNW,16.1,-,N/A,,Clear,330,2009-12-29 01:54:00
9:54 PM,30.0,18.0,61,30.07,10.0,NNW,17.3,24.2,N/A,,Clear,330,2009-12-29 02:54:00
10:54 PM,28.9,18.0,64,30.08,10.0,NNW,17.3,26.5,N/A,,Clear,330,2009-12-29 03:54:00
11:54 PM,30.0,17.1,59,30.10,10.0,North,9.2,19.6,N/A,,Scattered Clouds,350,2009-12-29 04:54:00